| time (UTC) | temp F | wind direction | speed MPH | gust MPH | rain 1hr in | rain 24hr in | rain mn in | humidity % | barometer mb |
| 20260510223537 | 55 | 3 | 0.0 | 3.0 | 0.00 | 0.21 | 0.05 | 45 | 1016.4 |
| 20260510221338 | 56 | 350 | 0.0 | 5.0 | 0.00 | 0.21 | 0.05 | 36 | 1016.5 |
| 20260510220330 | 57 | 340 | 1.0 | 0.0 | 0.00 | 0.21 | 0.05 | 37 | 1016.3 |
| 20260510214111 | 57 | 345 | 0.0 | 8.0 | 0.00 | 0.21 | 0.05 | 36 | 1016.0 |
| 20260510213037 | 58 | 305 | 1.0 | 6.0 | 0.00 | 0.21 | 0.05 | 37 | 1016.0 |
| 20260510210912 | 59 | 358 | 3.0 | 11.0 | 0.00 | 0.21 | 0.05 | 37 | 1015.6 |
| 20260510205926 | 58 | 27 | 1.0 | 8.0 | 0.00 | 0.21 | 0.05 | 38 | 1015.7 |
| 20260510204904 | 59 | 41 | 0.0 | 8.0 | 0.00 | 0.21 | 0.05 | 34 | 1015.4 |
| 20260510203925 | 59 | 21 | 1.0 | 5.0 | 0.00 | 0.21 | 0.05 | 36 | 1015.5 |
| 20260510202938 | 59 | 1 | 1.0 | 8.0 | 0.00 | 0.21 | 0.05 | 32 | 1015.3 |
| 20260510195648 | 60 | 349 | 1.0 | 7.0 | 0.00 | 0.21 | 0.05 | 36 | 1015.0 |
| 20260510191226 | 59 | 155 | 3.0 | 8.0 | 0.00 | 0.21 | 0.05 | 35 | 1015.0 |
| 20260510190225 | 59 | 201 | 1.0 | 7.0 | 0.00 | 0.21 | 0.05 | 36 | 1014.9 |
| 20260510185247 | 59 | 49 | 1.0 | 10.0 | 0.00 | 0.21 | 0.05 | 35 | 1015.0 |
| 20260510184230 | 59 | 77 | 3.0 | 10.0 | 0.00 | 0.21 | 0.05 | 36 | 1015.0 |
| 20260510183227 | 58 | 4 | 1.0 | 9.0 | 0.00 | 0.21 | 0.05 | 41 | 1014.8 |
| 20260510182157 | 58 | 351 | 3.0 | 9.0 | 0.00 | 0.21 | 0.05 | 38 | 1014.8 |
| 20260510181201 | 58 | 1 | 3.0 | 6.0 | 0.00 | 0.21 | 0.05 | 39 | 1014.7 |
| 20260510180203 | 57 | 186 | 3.0 | 9.0 | 0.00 | 0.21 | 0.05 | 42 | 1014.5 |
| 20260510174125 | 58 | 359 | 3.0 | 9.0 | 0.00 | 0.21 | 0.05 | 42 | 1014.3 |
| 20260510171952 | 57 | 12 | 3.0 | 9.0 | 0.00 | 0.21 | 0.05 | 45 | 1014.2 |
| 20260510165735 | 57 | 316 | 3.0 | 13.0 | 0.00 | 0.21 | 0.05 | 47 | 1014.1 |
| 20260510164747 | 57 | 333 | 3.0 | 9.0 | 0.00 | 0.21 | 0.05 | 44 | 1014.0 |
| 20260510163719 | 57 | 335 | 3.0 | 8.0 | 0.00 | 0.21 | 0.05 | 46 | 1014.0 |
| 20260510162731 | 57 | 334 | 3.0 | 10.0 | 0.00 | 0.21 | 0.05 | 47 | 1013.8 |
| 20260510161700 | 56 | 4 | 3.0 | 10.0 | 0.00 | 0.21 | 0.05 | 46 | 1013.8 |
| 20260510160719 | 56 | 13 | 3.0 | 7.0 | 0.00 | 0.21 | 0.05 | 50 | 1013.8 |
| 20260510155738 | 57 | 300 | 1.0 | 6.0 | 0.00 | 0.21 | 0.05 | 46 | 1013.8 |
| 20260510154722 | 56 | 354 | 1.0 | 9.0 | 0.00 | 0.21 | 0.05 | 46 | 1013.7 |
| 20260510153725 | 56 | 4 | 3.0 | 9.0 | 0.00 | 0.21 | 0.05 | 47 | 1013.8 |
| 20260510152724 | 56 | 320 | 1.0 | 8.0 | 0.00 | 0.21 | 0.05 | 45 | 1013.8 |
| 20260510151710 | 56 | 350 | 1.0 | 6.0 | 0.00 | 0.21 | 0.05 | 49 | 1013.8 |
| 20260510150730 | 56 | 342 | 1.0 | 7.0 | 0.00 | 0.21 | 0.05 | 50 | 1013.6 |
| 20260510145754 | 55 | 333 | 3.0 | 7.0 | 0.00 | 0.21 | 0.05 | 52 | 1013.4 |
| 20260510144744 | 56 | 4 | 1.0 | 4.0 | 0.00 | 0.21 | 0.05 | 50 | 1013.2 |
| 20260510142635 | 54 | 342 | 0.0 | 6.0 | 0.00 | 0.21 | 0.05 | 57 | 1012.9 |
| 20260510141610 | 54 | 356 | 1.0 | 6.0 | 0.00 | 0.21 | 0.05 | 59 | 1012.8 |
| 20260510140615 | 53 | 122 | 0.0 | 4.0 | 0.00 | 0.21 | 0.05 | 61 | 1012.6 |
| 20260510135543 | 53 | 15 | 0.0 | 3.0 | 0.00 | 0.21 | 0.05 | 64 | 1012.5 |
| 20260510134524 | 51 | 160 | 0.0 | 0.0 | 0.00 | 0.21 | 0.05 | 67 | 1012.4 |
| 20260510133459 | 52 | 359 | 0.0 | 3.0 | 0.00 | 0.21 | 0.05 | 67 | 1012.4 |
| 20260510132452 | 51 | 75 | 0.0 | 4.0 | 0.00 | 0.21 | 0.05 | 66 | 1012.2 |
| 20260510130325 | 50 | 127 | 0.0 | 2.0 | 0.00 | 0.21 | 0.05 | 73 | 1012.2 |
| 20260510125314 | 50 | 347 | 0.0 | 3.0 | 0.00 | 0.21 | 0.05 | 72 | 1012.1 |
| 20260510124254 | 49 | 52 | 0.0 | 3.0 | 0.00 | 0.21 | 0.05 | 75 | 1012.1 |
| 20260510123243 | 49 | 335 | 0.0 | 1.0 | 0.00 | 0.21 | 0.05 | 78 | 1012.1 |
| 20260510122239 | 48 | 315 | 0.0 | 3.0 | 0.00 | 0.21 | 0.05 | 78 | 1011.9 |
| 20260510121246 | 48 | 314 | 0.0 | 3.0 | 0.00 | 0.21 | 0.05 | 81 | 1012.0 |
| 20260510120239 | 48 | 37 | 0.0 | 3.0 | 0.00 | 0.21 | 0.05 | 83 | 1011.9 |
| 20260510115231 | 47 | 110 | 0.0 | 1.0 | 0.00 | 0.21 | 0.05 | 85 | 1011.7 |
| 20260510114204 | 47 | 354 | 0.0 | 0.0 | 0.00 | 0.21 | 0.05 | 87 | 1011.6 |
| 20260510113211 | 46 | 21 | 0.0 | 0.0 | 0.00 | 0.21 | 0.05 | 89 | 1011.5 |
| 20260510112208 | 46 | 348 | 0.0 | 0.0 | 0.00 | 0.21 | 0.05 | 91 | 1011.2 |
| 20260510111141 | 46 | 349 | 0.0 | 0.0 | 0.00 | 0.21 | 0.05 | 91 | 1011.1 |
| 20260510110107 | 46 | 349 | 0.0 | 0.0 | 0.00 | 0.21 | 0.05 | 92 | 1010.7 |
| 20260510105131 | 46 | 349 | 0.0 | 0.0 | 0.00 | 0.21 | 0.05 | 91 | 1010.2 |
| 20260510104131 | 46 | 349 | 0.0 | 0.0 | 0.00 | 0.21 | 0.05 | 91 | 1009.9 |
| 20260510103128 | 46 | 349 | 0.0 | 0.0 | 0.00 | 0.20 | 0.04 | 90 | 1010.0 |
| 20260510102126 | 45 | 349 | 0.0 | 0.0 | 0.00 | 0.20 | 0.04 | 89 | 1009.8 |
| 20260510101146 | 45 | 349 | 0.0 | 0.0 | 0.00 | 0.20 | 0.04 | 88 | 1009.9 |
| 20260510100202 | 46 | 348 | 0.0 | 0.0 | 0.00 | 0.20 | 0.04 | 89 | 1009.4 |
| 20260510095210 | 46 | 349 | 0.0 | 0.0 | 0.00 | 0.20 | 0.04 | 88 | 1009.1 |
| 20260510094229 | 46 | 348 | 0.0 | 0.0 | 0.00 | 0.20 | 0.04 | 88 | 1009.1 |
| 20260510093156 | 46 | 348 | 0.0 | 0.0 | 0.00 | 0.20 | 0.04 | 89 | 1009.0 |
| 20260510092209 | 47 | 349 | 0.0 | 0.0 | 0.04 | 0.20 | 0.04 | 89 | 1008.9 |
| 20260510091138 | 48 | 341 | 0.0 | 0.0 | 0.10 | 0.20 | 0.04 | 88 | 1008.4 |
| 20260510090142 | 49 | 276 | 0.0 | 5.0 | 0.21 | 0.18 | 0.02 | 87 | 1008.8 |
| 20260510085130 | 50 | 15 | 0.0 | 3.0 | 0.00 | 0.16 | 0.00 | 87 | 1008.5 |
| 20260510084129 | 50 | 342 | 0.0 | 2.0 | 0.00 | 0.16 | 0.00 | 90 | 1008.1 |
| 20260510083108 | 50 | 51 | 0.0 | 0.0 | 0.00 | 0.16 | 0.00 | 91 | 1008.1 |
| 20260510082051 | 51 | 326 | 0.0 | 0.0 | 0.00 | 0.16 | 0.00 | 91 | 1008.3 |
| 20260510081030 | 51 | 342 | 0.0 | 0.0 | 0.00 | 0.16 | 0.00 | 91 | 1007.8 |
| 20260510074844 | 51 | 350 | 0.0 | 1.0 | 0.00 | 0.16 | 0.00 | 91 | 1007.7 |
| 20260510073837 | 51 | 346 | 0.0 | 1.0 | 0.00 | 0.16 | 0.00 | 91 | 1007.6 |
| 20260510072900 | 51 | 336 | 0.0 | 0.0 | 0.00 | 0.16 | 0.00 | 90 | 1007.4 |
| 20260510071904 | 51 | 349 | 0.0 | 0.0 | 0.00 | 0.16 | 0.00 | 91 | 1007.3 |
| 20260510065751 | 50 | 343 | 0.0 | 1.0 | 0.00 | 0.16 | 0.00 | 91 | 1007.1 |
| 20260510064725 | 50 | 136 | 0.0 | 0.0 | 0.00 | 0.16 | 0.00 | 91 | 1007.0 |
| 20260510063714 | 50 | 169 | 0.0 | 0.0 | 0.00 | 0.16 | 0.00 | 90 | 1006.9 |
| 20260510062727 | 50 | 167 | 0.0 | 0.0 | 0.00 | 0.16 | 0.00 | 90 | 1006.6 |
| 20260510061712 | 50 | 224 | 0.0 | 0.0 | 0.00 | 0.16 | 0.00 | 89 | 1006.8 |
| 20260510060642 | 50 | 176 | 0.0 | 0.0 | 0.00 | 0.16 | 0.00 | 89 | 1006.6 |
| 20260510055622 | 50 | 208 | 0.0 | 1.0 | 0.00 | 0.16 | 0.00 | 89 | 1006.4 |
| 20260510053506 | 50 | 172 | 0.0 | 0.0 | 0.00 | 0.16 | 0.00 | 89 | 1006.3 |
| 20260510052517 | 50 | 167 | 0.0 | 2.0 | 0.00 | 0.16 | 0.00 | 88 | 1006.3 |
| 20260510051454 | 51 | 146 | 0.0 | 0.0 | 0.00 | 0.16 | 0.00 | 88 | 1006.1 |
| 20260510045330 | 50 | 193 | 0.0 | 4.0 | 0.00 | 0.16 | 0.00 | 90 | 1006.2 |
| 20260510044345 | 50 | 174 | 0.0 | 2.0 | 0.00 | 0.16 | 0.00 | 90 | 1006.1 |
| 20260510042207 | 50 | 144 | 0.0 | 1.0 | 0.00 | 0.16 | 0.00 | 90 | 1005.9 |
| 20260510041201 | 50 | 200 | 0.0 | 0.0 | 0.00 | 0.16 | 0.00 | 89 | 1006.0 |
| 20260510040220 | 50 | 154 | 0.0 | 2.0 | 0.00 | 0.16 | 0.00 | 89 | 1006.0 |
| 20260510035235 | 51 | 155 | 0.0 | 5.0 | 0.00 | 0.16 | 0.17 | 89 | 1005.9 |
| 20260510034214 | 51 | 184 | 0.0 | 2.0 | 0.00 | 0.16 | 0.17 | 89 | 1005.6 |
| 20260510033204 | 51 | 165 | 0.0 | 0.0 | 0.00 | 0.16 | 0.17 | 88 | 1005.2 |
| 20260510030945 | 51 | 131 | 1.0 | 6.0 | 0.00 | 0.16 | 0.17 | 88 | 1005.2 |
| 20260510025922 | 51 | 172 | 0.0 | 4.0 | 0.00 | 0.16 | 0.17 | 88 | 1005.2 |
| 20260510024941 | 52 | 160 | 0.0 | 5.0 | 0.00 | 0.16 | 0.17 | 88 | 1005.1 |
| 20260510023956 | 52 | 189 | 0.0 | 6.0 | 0.00 | 0.16 | 0.17 | 88 | 1005.1 |
| 20260510022925 | 52 | 139 | 1.0 | 6.0 | 0.00 | 0.16 | 0.17 | 88 | 1004.9 |
| 20260510020828 | 52 | 190 | 0.0 | 4.0 | 0.00 | 0.16 | 0.17 | 90 | 1004.5 |
| 20260510015806 | 52 | 96 | 0.0 | 4.0 | 0.00 | 0.16 | 0.17 | 91 | 1004.7 |
| 20260510012500 | 52 | 162 | 0.0 | 6.0 | 0.16 | 0.16 | 0.16 | 90 | 1004.7 |
| 20260510011524 | 52 | 349 | 0.0 | 14.0 | 0.27 | 0.13 | 0.13 | 90 | 1005.1 |
| 20260510010517 | 52 | 185 | 1.0 | 14.0 | 0.42 | 0.08 | 0.09 | 89 | 1005.3 |
| 20260510005520 | 53 | 156 | 1.0 | 9.0 | 0.18 | 0.04 | 0.05 | 88 | 1005.3 |
| 20260510004526 | 54 | 46 | 1.0 | 10.0 | 0.00 | 0.01 | 0.01 | 86 | 1005.2 |
| 20260510003545 | 56 | 328 | 4.0 | 13.0 | 0.00 | 0.00 | 0.00 | 80 | 1004.6 |
| 20260510002555 | 61 | 324 | 0.0 | 13.0 | 0.00 | 0.00 | 0.00 | 66 | 1003.9 |
| 20260510001555 | 63 | 193 | 0.0 | 0.0 | 0.00 | 0.00 | 0.00 | 60 | 1002.9 |
| 20260510000556 | 63 | 171 | 0.0 | 0.0 | 0.00 | 0.00 | 0.00 | 58 | 1002.9 |
| 20260509235616 | 63 | 193 | 0.0 | 0.0 | 0.00 | 0.00 | 0.00 | 57 | 1002.8 |
| 20260509234634 | 63 | 179 | 0.0 | 1.0 | 0.00 | 0.00 | 0.00 | 57 | 1002.5 |
| 20260509232530 | 65 | 152 | 0.0 | 5.0 | 0.00 | 0.00 | 0.00 | 55 | 1002.4 |
| 20260509231512 | 65 | 160 | 0.0 | 4.0 | 0.00 | 0.00 | 0.00 | 54 | 1002.4 |
| 20260509230510 | 65 | 188 | 0.0 | 2.0 | 0.00 | 0.00 | 0.00 | 54 | 1002.3 |
| 20260509225451 | 65 | 168 | 0.0 | 2.0 | 0.00 | 0.00 | 0.00 | 54 | 1002.5 |